TimeCDT,TemperatureF,Dew PointF,Humidity,Sea Level PressureIn,VisibilityMPH,Wind Direction,Wind SpeedMPH,Gust SpeedMPH,PrecipitationIn,Events,Conditions,WindDirDegrees,DateUTC
12:53 AM,78.1,75.9,93,30.02,10.0,Calm,Calm,-,N/A,,Scattered Clouds,0,2014-08-10 05:53:00
1:03 AM,78.1,75.0,90,30.02,10.0,NE,3.5,-,N/A,,Mostly Cloudy,40,2014-08-10 06:03:00
1:36 AM,78.1,75.9,93,30.01,10.0,SSE,4.6,-,N/A,,Mostly Cloudy,160,2014-08-10 06:36:00
1:53 AM,78.1,75.0,90,30.00,10.0,SSE,3.5,-,N/A,,Partly Cloudy,160,2014-08-10 06:53:00
2:53 AM,78.1,75.0,90,29.99,10.0,Calm,Calm,-,N/A,,Clear,0,2014-08-10 07:53:00
3:53 AM,78.8,75.2,89,29.98,10.0,South,5.8,-,N/A,,Clear,180,2014-08-10 08:53:00
4:53 AM,78.1,75.0,90,29.98,10.0,Calm,Calm,-,N/A,,Clear,0,2014-08-10 09:53:00
5:53 AM,77.0,75.0,94,30.00,10.0,Calm,Calm,-,N/A,,Clear,0,2014-08-10 10:53:00
6:53 AM,77.0,75.2,94,30.02,10.0,Calm,Calm,-,N/A,,Clear,0,2014-08-10 11:53:00
7:53 AM,79.0,77.0,94,30.05,10.0,Calm,Calm,-,N/A,,Clear,0,2014-08-10 12:53:00
8:53 AM,80.6,77.0,89,30.06,10.0,Calm,Calm,-,N/A,,Clear,0,2014-08-10 13:53:00
9:53 AM,84.9,78.1,80,30.06,10.0,ENE,3.5,-,N/A,,Partly Cloudy,70,2014-08-10 14:53:00
10:45 AM,86.0,75.9,72,30.06,10.0,West,3.5,-,N/A,,Mostly Cloudy,280,2014-08-10 15:45:00
10:53 AM,86.0,75.0,70,30.06,10.0,WNW,4.6,-,N/A,,Overcast,290,2014-08-10 15:53:00
11:03 AM,86.0,75.9,72,30.07,10.0,NNW,15.0,23.0,N/A,,Overcast,330,2014-08-10 16:03:00
11:19 AM,80.1,73.9,81,30.06,2.5,NNW,6.9,-,0.17,Rain,Heavy Rain,330,2014-08-10 16:19:00
11:28 AM,80.1,73.0,79,30.06,7.0,NNW,5.8,-,0.19,Rain,Rain,330,2014-08-10 16:28:00
11:53 AM,81.0,77.0,88,30.06,10.0,ESE,4.6,-,0.19,,Mostly Cloudy,110,2014-08-10 16:53:00
12:27 PM,80.1,75.9,87,30.06,10.0,ESE,3.5,-,N/A,Thunderstorm,Mostly Cloudy,110,2014-08-10 17:27:00
12:53 PM,82.0,77.0,85,30.07,10.0,South,3.5,-,0.01,Thunderstorm,Thunderstorm,190,2014-08-10 17:53:00
1:12 PM,84.0,78.1,82,30.06,10.0,Calm,Calm,-,N/A,Thunderstorm,Partly Cloudy,0,2014-08-10 18:12:00
1:53 PM,82.9,75.9,79,30.08,10.0,NNW,8.1,-,N/A,Thunderstorm,Scattered Clouds,330,2014-08-10 18:53:00
2:01 PM,82.0,75.0,79,30.07,10.0,NNW,3.5,-,N/A,Thunderstorm,Thunderstorm,330,2014-08-10 19:01:00
2:16 PM,82.0,73.9,76,30.07,10.0,Calm,Calm,-,N/A,Thunderstorm,Mostly Cloudy,0,2014-08-10 19:16:00
2:53 PM,82.9,75.0,77,30.04,10.0,Calm,Calm,-,N/A,,Clear,0,2014-08-10 19:53:00
3:53 PM,82.0,77.0,85,30.03,10.0,East,4.6,-,N/A,,Clear,90,2014-08-10 20:53:00
4:21 PM,84.0,78.1,82,30.03,10.0,NNE,3.5,-,N/A,,Mostly Cloudy,30,2014-08-10 21:21:00
4:28 PM,84.0,78.1,82,30.03,10.0,NE,3.5,-,N/A,,Mostly Cloudy,40,2014-08-10 21:28:00
4:38 PM,84.9,78.1,80,30.03,10.0,Variable,4.6,-,N/A,,Scattered Clouds,0,2014-08-10 21:38:00
4:53 PM,86.0,77.0,74,30.02,10.0,North,3.5,-,N/A,,Clear,10,2014-08-10 21:53:00
5:53 PM,87.1,75.9,69,30.00,10.0,Calm,Calm,-,N/A,,Clear,0,2014-08-10 22:53:00
6:53 PM,86.0,77.0,74,29.99,10.0,NE,4.6,-,N/A,,Clear,40,2014-08-10 23:53:00
7:53 PM,82.0,77.0,85,30.00,10.0,NE,5.8,-,N/A,,Clear,40,2014-08-11 00:53:00
8:53 PM,79.0,75.9,90,30.00,10.0,NNE,5.8,-,N/A,,Clear,20,2014-08-11 01:53:00
9:01 PM,79.0,75.9,90,30.00,10.0,NNE,6.9,-,N/A,,Partly Cloudy,20,2014-08-11 02:01:00
9:53 PM,78.1,75.0,90,30.02,10.0,ENE,4.6,-,N/A,,Clear,60,2014-08-11 02:53:00
10:53 PM,77.0,75.0,94,30.02,10.0,Variable,4.6,-,N/A,,Clear,0,2014-08-11 03:53:00
11:53 PM,75.9,73.9,94,30.03,10.0,South,4.6,-,N/A,,Clear,170,2014-08-11 04:53:00